SCP
0 0 0 0 0 0 0 0 0 0 0 0 0 0 0 0 0 0 1 1 1 1
-0 -0 0 0 0 0 0 0 0 0 0 0 0 0 0 0 0 0 0 0 1 1
0 0 0 0 0 0 0 0 0 0 0 0 0 0 0 0 0 0 0 0 0 0
0 0 0 0 0 0 0 0 0 0 0 0 0 0 0 0 0 0 0 0 0 0
0 0 0 0 0 0 0 0 0 0 0 0 0 0 0 0 0 0 0 0 0 0
0 0 0 0 0 0 0 0 0 0 0 0 0 0 0 0 0 0 0 0 0 0
0 0 0 0 0 0 0 0 0 0 0 0 0 0 0 0 0 0 0 0 0 0
0 0 0 -0 0 0 0 -0 -0 0 0 0 0 0 0 0 0 0 0 0 0 0
0 -0 0 0 -0 -0 -0 0 0 0 0 0 0 0 0 0 0 0 0 0 0 0
0 0 0 0 -0 0 -0 -0 -0 0 0 0 0 0 0 0 0 0 0 0 0 0
0 0 -0 -0 -0 -0 -0 -0 -0 -0 -0 -0 -0 -0 -0 -0 0 0 0 0 0 0
0 -0 -0 -0 -0 -0 0 0 0 0 -0 -0 -0 -0 -0 -0 0 0 0 0 0 0
-0 -0 -0 0 0 0 0 0 0 0 0 -0 -0 -0 -0 -0 0 0 0 0 0 0
-0 -0 -0 -0 0 0 0 -0 -0 -0 -0 0 -0 -0 -0 -0 0 0 0 0 0 0
Wind_Speed_500mb
95 96 97 104 95 86 82 81 84 87 85 80 70 76 69 64 54 46 53 61 66 72
105 107 105 83 84 83 84 83 81 78 74 79 74 64 68 74 69 62 64 59 61 65
112 112 86 80 82 79 79 78 73 71 71 70 70 73 70 71 74 70 67 64 71 61
119 94 84 76 77 75 74 71 71 68 66 66 61 59 61 67 65 68 67 61 59 71
97 83 78 78 70 67 70 70 70 68 65 63 63 68 65 56 54 51 53 59 59 61
77 75 76 74 71 68 65 63 62 61 63 62 59 58 58 58 59 56 51 48 53 55
77 73 69 69 71 66 61 61 60 55 56 54 57 58 55 50 48 41 42 48 51 51
70 67 67 65 58 54 52 47 47 46 37 34 35 40 47 38 30 34 46 39 30 35
63 61 60 57 52 48 40 37 39 30 14 8 9 12 20 21 34 33 47 35 34 28
59 59 54 49 42 36 29 23 23 17 7 9 15 9 13 24 30 41 42 41 36 34
55 51 47 38 30 27 23 18 18 16 14 11 13 11 8 30 41 47 43 43 37 32
48 44 36 33 29 34 28 27 33 33 30 32 36 33 36 46 51 51 48 45 40 36
39 32 30 33 35 35 42 43 38 43 39 37 37 38 49 61 58 58 55 52 52 51
30 29 28 32 39 43 48 51 57 59 58 53 42 41 50 62 62 64 64 61 61 62
Wind_Direction_500mb
323 316 311 305 303 300 299 298 296 287 280 283 274 268 264 268 264 264 268 262 259 260
319 315 314 309 302 299 298 294 294 293 287 273 274 268 266 260 263 263 265 269 265 260
317 317 313 308 304 300 295 297 294 292 288 284 275 267 264 264 260 260 261 267 264 268
319 318 311 308 304 300 301 301 299 292 288 281 276 271 268 262 259 258 257 261 269 265
318 316 311 312 309 304 299 296 294 290 286 281 271 264 266 267 254 255 261 264 268 274
321 317 316 314 312 308 304 300 294 288 282 278 272 268 264 263 256 251 256 262 268 271
325 324 320 316 313 309 305 300 297 294 290 279 268 261 260 261 259 252 258 263 260 259
326 324 323 320 319 315 310 305 302 303 295 282 268 254 250 250 241 251 260 250 239 246
334 333 334 331 328 323 319 317 315 314 293 291 257 236 218 220 248 247 237 227 197 199
350 346 343 342 342 345 344 337 339 341 275 267 281 297 228 223 218 213 191 177 167 158
355 350 352 359 9 21 24 36 53 72 110 177 154 204 230 192 175 154 148 144 142 140
357 359 12 29 37 57 57 67 78 86 99 110 127 158 165 160 149 140 134 127 126 127
1 14 33 47 57 64 73 73 75 81 81 94 112 133 140 138 136 127 121 116 113 112
17 38 53 67 74 79 82 84 82 79 81 83 88 102 111 113 113 114 113 111 111 106
Wind_Speed_850mb
95 96 97 104 95 86 82 81 84 87 85 80 70 76 69 64 54 46 53 61 66 72
105 107 105 83 84 83 84 83 81 78 74 79 74 64 68 74 69 62 64 59 61 65
112 112 86 80 82 79 79 78 73 71 71 70 70 73 70 71 74 70 67 64 71 61
119 94 84 76 77 75 74 71 71 68 66 66 61 59 61 67 65 68 67 61 59 71
97 83 78 78 70 67 70 70 70 68 65 63 63 68 65 56 54 51 53 59 59 61
77 75 76 74 71 68 65 63 62 61 63 62 59 58 58 58 59 56 51 48 53 55
77 73 69 69 71 66 61 61 60 55 56 54 57 58 55 50 48 41 42 48 51 51
70 67 67 65 58 54 52 47 47 46 37 34 35 40 47 38 30 34 46 39 30 35
63 61 60 57 52 48 40 37 39 30 14 8 9 12 20 21 34 33 47 35 34 28
59 59 54 49 42 36 29 23 23 17 7 9 15 9 13 24 30 41 42 41 36 34
55 51 47 38 30 27 23 18 18 16 14 11 13 11 8 30 41 47 43 43 37 32
48 44 36 33 29 34 28 27 33 33 30 32 36 33 36 46 51 51 48 45 40 36
39 32 30 33 35 35 42 43 38 43 39 37 37 38 49 61 58 58 55 52 52 51
30 29 28 32 39 43 48 51 57 59 58 53 42 41 50 62 62 64 64 61 61 62
Wind_Direction_850mb
323 316 311 305 303 300 299 298 296 287 280 283 274 268 264 268 264 264 268 262 259 260
319 315 314 309 302 299 298 294 294 293 287 273 274 268 266 260 263 263 265 269 265 260
317 317 313 308 304 300 295 297 294 292 288 284 275 267 264 264 260 260 261 267 264 268
319 318 311 308 304 300 301 301 299 292 288 281 276 271 268 262 259 258 257 261 269 265
318 316 311 312 309 304 299 296 294 290 286 281 271 264 266 267 254 255 261 264 268 274
321 317 316 314 312 308 304 300 294 288 282 278 272 268 264 263 256 251 256 262 268 271
325 324 320 316 313 309 305 300 297 294 290 279 268 261 260 261 259 252 258 263 260 259
326 324 323 320 319 315 310 305 302 303 295 282 268 254 250 250 241 251 260 250 239 246
334 333 334 331 328 323 319 317 315 314 293 291 257 236 218 220 248 247 237 227 197 199
350 346 343 342 342 345 344 337 339 341 275 267 281 297 228 223 218 213 191 177 167 158
355 350 352 359 9 21 24 36 53 72 110 177 154 204 230 192 175 154 148 144 142 140
357 359 12 29 37 57 57 67 78 86 99 110 127 158 165 160 149 140 134 127 126 127
1 14 33 47 57 64 73 73 75 81 81 94 112 133 140 138 136 127 121 116 113 112
17 38 53 67 74 79 82 84 82 79 81 83 88 102 111 113 113 114 113 111 111 106